OBJECT A, 52716

Orbit data source: Space-Track

You're viewing an Uncataloged Satellite

Recently launched and/or uncataloged satellites may have evolving metadata. Metadata may include but not limited to: Owner, Maufacturer, Bus, Motor, and Mission.

OBJECT A, 52716 is a satellite in LEO that was launched on Fri, 20 May 2022 UTC via a CHANG ZHENG 2C/YZ-1S launch vehicle from the Jiuquan Satellite Launch Center, China (JSC). Unknown objects in Earth's orbit typically refer to objects detected orbiting the Earth but have not yet been identified or cataloged. These objects could be anything from previously untracked satellites, spent rocket stages, debris from satellite collisions, or even natural meteoroids temporarily captured by Earth's gravity.

Loading next visibility...
Identifier
52716, 2022-056A
Orbit
LEO
Last TLE update
6 hours ago
Origin
Manufacturer
Changguang WJ
Mission
Non-operational Commercial Communications
Bus & Motor
Unknown
Mass
~300 kg wet, ~300 kg dry
Launch date (UTC)
2022-05-20 (3 years ago)
Launch vehicle
CHANG ZHENG 2C/YZ-1S
Launch site
Jiuquan Satellite Launch Center, China (JSC)
Object type
Unknown
Shape & HBR
Box + 2 Pan, 2.5 m
Radar Cross Section
2.320 m², Large (>1 m²)

Expand to show TLE details & history

TLE from 6 hours ago
0 OBJECT A
1 52716U 22056A   25150.16482456  .00000232  00000-0  13406-3 0  9999
2 52716  86.0065 192.6782 0021662 126.4249 233.8931 14.04250530155136
Epoch: 2025-05-30T03:57Z
TLE epoch observation values (Epoch: 2025-05-30T03:57:20.841Z)
Latitude
-0.00006°
Longitude
-114.58213°
Altitude
891.404 km
Speed
7.402 km/s
True Right ascension
12h 50m 42s
True Declination
0° 00' 00"
Sunlit
Object was in full shadow at epoch
Visualization orbit readout
Latitude
-83.41881°
Longitude
-151.71009°
Altitude
921.23 km
Speed
7.384 km/s
Apparent Right ascension
08h 16m 18s
Apparent Declination
-63° 39' 40"
Sunlit
Object is in daylight
Visualization observer readout
Local Sidereal Time
19:55:47
Azimuth
185.611° SSW
Elevation
-66.062°
Doppler factor
1
Orbital elements
Apogee altitude
891.843 km
Perigee altitude
860.414 km
Semi-major axis
7,254.266 km
Eccentricity
0.00217
Inclination
86.0065°
RAAN
192.6782°
Arg. of periapsis
126.4249°
True anomaly
Unknown
Mean anomaly
233.8931°
Eccentric anomaly
Unknown
Mean motion
3.5128 °/min
Orbital period
102.48 mins
BSTAR
0.00013406
Loading maneuver chart data...
Loading SW <> Apogee altitude chart data...
Loading historical data...
Loading historical data...
Loading historical data...
Loading historical data...
Loading historical data...
Loading historical data...
Loading historical data...
Other satellites on launch #56 in the year 2022 (2022-05-20 UTC)

OBJECT A Visibility forecast

Observer location: undefined°, undefined°

Span
Click to sort rows by Start time (UTC) header in descending order
Start Az.
Max El. time (UTC)
Max El. Az.
Max El.
End time (UTC)
End Az.
10 mins2025-05-30 14:47:30.714Z1.406° NNE2025-05-30 14:52:30.714Z63.788° ENE43.543°2025-05-30 14:57:30.714Z170.035° S
7 mins2025-05-31 02:19:30.714Z125.21° SE2025-05-31 02:22:30.714Z86.993° E22.381°2025-05-31 02:26:30.714Z35.255° NE
9 mins2025-05-31 04:01:30.714Z215.189° SW2025-05-31 04:05:30.714Z280.078° WNW33.626°2025-05-31 04:10:30.714Z347.464° N
|